Accueil
METAR-TAF:

METAR-TAF

Aéroports :

Lismore, Australie

latitude: 28-49-41S, longitude: 153-15-36E, altitude: 11 m

Observation

Le bulletin a été fait il y a 31 minutes, à 22:00 UTC
Vent 5 kt de nord
Température 15°C
Humidité 94%
Pression 1021 hPa
Visibilité 10 km ou plus

METAR: YLIS 232200Z AUTO 36005KT 9999 // NCD 15/14 Q1021

Heure: 09:31 (22:31 UTC)


TAF: absent

Observations et prévisions météorologiques de plus de 4000 aéroports (messages METAR et TAF).

Les stations disponibles sont représentées par des disques jaunes et rouges sur la carte.

Passer la souris dessus pour voir le nom de la station.

Cliquer dessus pour voir les observations et prévisions météorologiques.

Pour changer de carte: cliquez sur les boutons verts avec une croix noire pour zoomer, sur le bouton vert avec un tiret pour effectuer un zoom arrière, ou sur les flèches vertes pour les cartes adjacentes.


METAR-TAF: